Tracking 29924 objects as of 4-Dec-2024
HD Live streaming from Space Station
objects crossing your sky now

STARLINK-11134

Track STARLINK-11134 now!
10-day predictions
STARLINK-11134 is classified as:


NORAD ID: 59956
Int'l Code: 2024-107M
Perigee: 366.0 km
Apogee: 367.7 km
Inclination: 53.2 °
Period: 91.7 minutes
Semi major axis: 6737 km
RCS: Unknown
Launch date: June 5, 2024
Source: United States (US)
Launch site: AIR FORCE EASTERN TEST RANGE (AFETR)
Your satellite tracking list
Your tracking list is empty




NASA's NSSDC Master Catalog

Two Line Element Set (TLE):
1 59956U 24107M   24338.36853837 -.00000521  00000-0  56288-6 0  9995
2 59956  53.1582   5.1618 0001285  94.4368 265.6797 15.69723931 29370
Source of the keplerian elements: AFSPC